Location: ??
(35.5052°N, 139.7262°E)
Time: 06:36:36
(UTC+00:00)

FENGYUN 1C DEB - Visible Passes

Search period start: 29 January 2022 00:00
Search period end: 08 February 2022 00:00
Orbit: 690 x 958 km, 98.5° (Epoch: 28 January)

Date Brightness Start Highest point End Pass type
(mag) Time Alt. Az. Time Alt. Az. Time Alt. Az.
29 Jan ? 09:44:21 10° SSW 09:49:01 33° W 09:54:01 10° NNW visible
29 Jan ? 20:26:18 10° NE 20:30:01 17° E 20:33:39 10° SE visible
30 Jan ? 09:24:17 10° S 09:29:21 52° W 09:34:50 10° NNW visible
30 Jan ? 20:09:38 10° E 20:10:12 10° E 20:10:46 10° E visible
31 Jan ? 09:04:29 10° S 09:09:44 81° WSW 09:15:26 10° NNW visible
01 Feb ? 08:44:57 10° SSE 08:50:12 67° ENE 08:55:53 10° N visible
01 Feb ? 10:28:26 10° WSW 10:30:57 13° W 10:33:31 10° WNW visible
01 Feb ? 21:06:16 10° NNE 21:11:55 39° E 21:17:20 10° SSE visible
02 Feb ? 10:07:08 10° SW 10:11:08 21° W 10:15:20 10° NW visible
02 Feb ? 20:47:15 10° NE 20:52:13 26° E 20:57:01 10° SSE visible
03 Feb ? 09:46:37 10° SSW 09:51:23 32° W 09:56:28 10° NNW visible
03 Feb ? 20:28:38 10° NE 20:32:28 17° E 20:36:12 10° SE visible
04 Feb ? 09:26:29 10° S 09:31:42 50° W 09:37:19 10° NNW visible
04 Feb ? 20:11:22 10° ENE 20:12:39 11° E 20:13:55 10° E visible
05 Feb ? 09:06:40 10° S 09:12:05 77° WSW 09:17:57 10° NNW visible
06 Feb ? 08:47:07 10° SSE 08:52:33 72° ENE 08:58:24 10° N visible
06 Feb ? 10:30:51 10° WSW 10:33:19 13° W 10:35:52 10° WNW visible
07 Feb ? 10:09:28 10° SW 10:13:31 21° W 10:17:45 10° NW visible
07 Feb ? 20:49:40 10° NE 20:54:39 27° E 20:59:25 10° SSE visible
